TimeEDT,TemperatureF,Dew PointF,Humidity,Sea Level PressureIn,VisibilityMPH,Wind Direction,Wind SpeedMPH,Gust SpeedMPH,PrecipitationIn,Events,Conditions,WindDirDegrees,DateUTC
12:53 AM,46.9,46.0,97,30.20,10.0,Calm,Calm,-,N/A,,Clear,0,2013-10-12 04:53:00
1:53 AM,46.9,45.0,93,30.23,9.0,Calm,Calm,-,N/A,,Clear,0,2013-10-12 05:53:00
2:53 AM,46.9,45.0,93,30.23,8.0,Calm,Calm,-,N/A,,Clear,0,2013-10-12 06:53:00
3:53 AM,46.9,45.0,93,30.25,6.0,Calm,Calm,-,N/A,,Clear,0,2013-10-12 07:53:00
4:53 AM,46.9,45.0,93,30.28,7.0,Calm,Calm,-,N/A,,Clear,0,2013-10-12 08:53:00
5:53 AM,45.0,44.1,97,30.30,5.0,Calm,Calm,-,N/A,,Partly Cloudy,0,2013-10-12 09:53:00
6:20 AM,46.4,44.6,93,30.31,7.0,Calm,Calm,-,N/A,,Mostly Cloudy,0,2013-10-12 10:20:00
6:53 AM,46.9,45.0,93,30.33,6.0,Calm,Calm,-,N/A,,Mostly Cloudy,0,2013-10-12 10:53:00
7:29 AM,50.0,48.2,94,30.34,7.0,Calm,Calm,-,N/A,,Scattered Clouds,0,2013-10-12 11:29:00
7:53 AM,51.1,50.0,96,30.35,10.0,Calm,Calm,-,N/A,,Mostly Cloudy,0,2013-10-12 11:53:00
8:28 AM,53.6,51.8,94,30.37,10.0,Calm,Calm,-,N/A,,Mostly Cloudy,0,2013-10-12 12:28:00
8:53 AM,55.0,51.1,86,30.37,10.0,Variable,4.6,-,N/A,,Mostly Cloudy,0,2013-10-12 12:53:00
9:04 AM,55.4,51.8,88,30.37,10.0,Variable,3.5,-,N/A,,Mostly Cloudy,0,2013-10-12 13:04:00
9:53 AM,57.9,51.1,78,30.38,10.0,Variable,4.6,-,N/A,,Mostly Cloudy,0,2013-10-12 13:53:00
10:01 AM,57.2,50.0,77,30.38,10.0,ENE,6.9,-,N/A,,Mostly Cloudy,70,2013-10-12 14:01:00
10:09 AM,57.2,50.0,77,30.38,10.0,ENE,6.9,-,N/A,,Mostly Cloudy,70,2013-10-12 14:09:00
10:53 AM,57.0,48.0,72,30.39,10.0,ENE,8.1,-,N/A,,Overcast,70,2013-10-12 14:53:00
11:53 AM,57.9,48.9,72,30.40,10.0,East,4.6,-,N/A,,Overcast,80,2013-10-12 15:53:00
12:53 PM,59.0,48.9,69,30.39,10.0,Calm,Calm,-,N/A,,Overcast,0,2013-10-12 16:53:00
1:53 PM,59.0,48.9,69,30.39,10.0,SE,6.9,-,N/A,,Overcast,130,2013-10-12 17:53:00
2:53 PM,59.0,48.0,67,30.40,10.0,ESE,5.8,-,N/A,,Overcast,120,2013-10-12 18:53:00
3:53 PM,57.9,48.0,70,30.39,10.0,SE,6.9,-,N/A,,Overcast,130,2013-10-12 19:53:00
4:23 PM,57.2,46.4,67,30.39,10.0,ESE,5.8,-,N/A,,Partly Cloudy,120,2013-10-12 20:23:00
4:53 PM,55.9,46.0,69,30.40,10.0,SE,4.6,-,N/A,,Clear,140,2013-10-12 20:53:00
5:27 PM,55.4,46.4,72,30.39,10.0,ESE,5.8,-,N/A,,Mostly Cloudy,120,2013-10-12 21:27:00
5:53 PM,54.0,46.0,75,30.41,10.0,Calm,Calm,-,N/A,,Overcast,0,2013-10-12 21:53:00
6:53 PM,53.1,46.0,77,30.41,10.0,Calm,Calm,-,N/A,,Overcast,0,2013-10-12 22:53:00
7:53 PM,53.1,46.0,77,30.42,10.0,Calm,Calm,-,N/A,,Overcast,0,2013-10-12 23:53:00
8:53 PM,53.1,46.9,80,30.43,10.0,Calm,Calm,-,N/A,,Overcast,0,2013-10-13 00:53:00
9:53 PM,52.0,48.0,86,30.43,10.0,Calm,Calm,-,N/A,,Overcast,0,2013-10-13 01:53:00
10:53 PM,52.0,48.0,86,30.44,10.0,Calm,Calm,-,N/A,,Overcast,0,2013-10-13 02:53:00
11:53 PM,52.0,46.9,83,30.44,10.0,Calm,Calm,-,N/A,,Overcast,0,2013-10-13 03:53:00